Starlink 1262

operational
NORAD ID: 45366 Int'l Des: 2020-019 Owner: SPXS Country: US Constellation: starlink
LEOCIRCULARSTARLINK_TYPE

Über Starlink 1262

Beschreibung wird geladen...

Live-Position

3D-Globus wird geladen...

Nächste Überflüge

Höhenverlauf

Altitude vs Time

uPlot chart will show altitude changes over time

Zweizeiliger Elementsatz

1 45366U 20019G 25350.82476522 .00000816 00000-0 73693-4 0 9994
2 45366 53.0544 178.6098 0001417 92.4852 267.6300 15.06394109317248
Epoch: 16. Dez. 2025 • Age: 17 hours

Aktueller Status

Höhe 564.7 km
Geschwindigkeit 7.58 km/s
Subsatellitenpunkt -48.16°S, 162.78°W
Startdatum 18. März 2020
Alter 5.7 years
Typ internet

Technische Details

Klassifizierung Payload
Masse 260.00 kg
Trockenmasse 248.00 kg
Gesamtmasse 260.00 kg
Länge 0.20 m
Durchmesser 2.80 m
Spannweite 9.00 m
Form Box + pan
Hersteller SPXS
Bus-Typ Starlink
Phasenstatus In Orbit
Besitzer/Staat SPXS/US

Große Konstellationen

Loading constellations...